www.pogodaiklimat.ru
ПОГОДА в Рутланде
Время
и дата
00:56 19.05
01:56 19.05
02:56 19.05
03:56 19.05
04:56 19.05
05:56 19.05
06:56 19.05
07:56 19.05
08:56 19.05
09:56 19.05
10:56 19.05
11:56 19.05
12:56 19.05
13:56 19.05
14:56 19.05
15:56 19.05
16:56 19.05
17:56 19.05
18:56 19.05
19:56 19.05
20:56 19.05
21:56 19.05
22:56 19.05
23:56 19.05
00:56 20.05
01:56 20.05
02:56 20.05
03:56 20.05
04:56 20.05
05:56 20.05
06:56 20.05
07:56 20.05
08:56 20.05
09:56 20.05
10:56 20.05
11:56 20.05
12:56 20.05
13:56 20.05
14:56 20.05
15:56 20.05
16:56 20.05
17:56 20.05
18:56 20.05
19:56 20.05
20:56 20.05
21:56 20.05
22:56 20.05
23:56 20.05
Ветер
(напр.,м/с)
Видим. Явления Облачность Т
(С)
Тd
(С)
f
(%)
Тe
(С)
Тes
(С)
Комфортность P
(гПа)
Po
(гПа)
Тmin
(С)
Tmax
(С)
R
(мм)
R24
(мм)
S
(см)
штиль 0 16 км 5/5 600 м +13.3 +10.6 84 +13 +13 1016.2 987.9 +13.3 +17.2
штиль 0 16 км ясно +12.8 +11.1 89 +12 +12 1015.8 987.5
штиль 0 16 км ясно +12.8 +11.1 89 +12 +12 1015.8 987.5
ЮВ 3 16 км ясно +12.2 +11.1 93 +11 +11 1016.3 988.2
Ю 2 16 км 8/8 1950 м +11.1 +10.6 97 +10 +10 1016.6 988.5
штиль 0 16 км 5/5 1950 м +13.3 +11.7 90 +13 +13 1017.1 988.9
ЮЗ 2 16 км 10/10 1470 м +15.0 +11.7 81 +15 +15 1017.5 989.2 +11.1 +15.0
ЮВ 4 11 км 2/2 1800 м +17.2 +11.7 70 +17 +19 1017.3 989.2
В 4 16 км 8/8 1290 м +18.3 +11.7 65 +18 +20 1017.1 988.9
ЮВ 4 16 км 5/5 1650 м +18.3 +11.7 65 +18 +23 1016.9 988.5
ЮВ 4 16 км 8/8 1200 м +19.4 +11.7 61 +21 +23 комфорт 1016.4 988.2
ЮВ 4 16 км 10/10 1500 м +19.4 +11.7 61 +21 +21 комфорт 1016.2 987.9
ЮВ 4 16 км 10/10 1650 м +20.0 +11.7 59 +22 +22 комфорт 1015.8 987.5 +15.0 +20.6
ЮВ 5 16 км 8/8 1350 м +21.7 +11.7 53 +24 +26 комфорт 1015.0 986.9
ЮВ 4 16 км ясно +22.2 +11.1 49 +24 +34 комфорт 1014.3 986.2
В 5
{7}
16 км ясно +22.2 +11.7 51 +24 +30 комфорт 1014.4 986.6
ЮВ 3 16 км ясно +22.2 +11.7 51 +24 +30 комфорт 1014.6 986.6
ЮВ 6 16 км ясно +21.1 +11.7 55 +23 +24 комфорт 1014.8 986.9
ЮВ 7 16 км ясно +18.9 +12.2 65 +19 +19 1014.8 986.9 +18.9 +22.8
ЮВ 5 16 км ясно +17.2 +12.2 72 +17 +17 1015.6 987.5
ЮВ 5 16 км 5/0 2100 m
[Ac]
+16.1 +12.8 81 +15 +15 1016.4 988.2
ЮВ 5 16 км 8/8 1950 м +15.6 +12.8 83 +14 +14 1016.3 988.2
Ю 5 16 км 10/10 1800 м +15.6 +12.2 80 +14 +14 1016.4 988.5
ЮВ 5 16 км 10/10 1950 м +15.6 +12.2 80 +14 +14 1016.4 988.5
ЮВ 5 16 км 2/2 1500 м +14.4 +11.7 84 +13 +13 1016.2 988.2 +14.4 +18.9
ЮВ 3 16 км 8/8 1470 м +13.9 +11.7 87 +13 +13 1016.3 988.2
ЮВ 3 16 км 10/10 1470 м +13.9 +11.7 87 +13 +13 1016.1 988.2
ЮВ 4 16 км ясно +12.8 +11.1 89 +11 +11 1015.8 987.9
ЮВ 3 16 км ясно +12.2 +10.6 90 +11 +11 1016.3 988.2
ЮВ 2 16 км ясно +12.8 +11.1 89 +12 +12 1016.8 988.9
штиль 0 16 км ясно +15.0 +11.7 81 +15 +17 1017.3 989.2 +11.7 +15.0
штиль 0 16 км ясно +17.8 +12.8 73 +18 +24 1016.4 988.5
штиль 0 16 км ясно +19.4 +13.3 68 +21 +32 комфорт 1016.2 988.2
штиль 0 16 км ясно +21.1 +13.9 63 +24 +40 комфорт 1015.9 987.9
СВ 2 16 км ясно +23.3 +15.0 60 +27 +43 душно 1015.5 987.9
штиль 0 16 км ясно +24.4 +15.0 56 +27 +52 опасность
солнечного
удара
1015.1 987.2
Ю 2 16 км 5/5 1500 м +25.0 +14.4 52 +28 +37 жарко 1014.6 986.9 +15.0 +25.6
СЗ 3 16 км ясно +26.1 +14.4 48 +28 +43 жарко 1014.0 986.2
нст 2 16 км ясно +27.2 +14.4 45 +29 +44 жарко 1013.3 985.6
штиль 0 6 км мгла ясно +27.2 +13.9 44 +29 +44 жарко 1012.9 985.2
нст 2 16 км ясно +27.2 +13.9 44 +29 +36 жарко 1012.5 984.9
З 3 16 км ясно +26.7 +13.9 45 +29 +32 жарко 1012.4 984.6
Ю 2 16 км ясно +24.4 +13.9 52 +27 +28 жарко 1012.7 984.9 +24.4 +27.8
ЮВ 4 16 км 5/5 1950 м +21.7 +15.0 66 +25 +25 комфорт 1013.1 985.2
ЮВ 3 16 км 10/0 2100 m
[Ac]
+20.0 +15.0 73 +23 +23 комфорт 1013.4 985.6
ЮВ 5 16 км 5/0 2100 m
[Ac]
+19.4 +14.4 73 +21 +21 комфорт 1013.3 985.6
ЮВ 2 16 км ясно +17.8 +14.4 80 +18 +18 1013.2 985.6
ЮВ 4 16 км ясно +17.2 +13.9 81 +17 +17 1013.1 985.2
Местоположение метеостанции Rutland State Airport: широта 43.5333 долгота -72.9500 высота над уровнем моря 240 м.
В архиве по умолчанию представлена погода в Рутланде за последние 1-2 суток. Обновление информации о фактической погоде в базе происходит ежечасно! Архивные данные за месяц целиком и за предыдущие месяцы Вы можете получить, выбрав интересующий диапазон дат из раскрывающегося списка и нажав кнопку "Ввод!".
Внимание! Архив погоды МЕТАР в базе сайта по станциям, не включенным в климатический монитор, хранится не более 60 дней. Нет смысла пытаться выбрать более раннюю дату.
*Определитесь, кто Вы:
Внимание! Время в таблицах - местное (без учета летнего времени). Для получения всемирного времени необходимо вычесть поправку, которая равна -5 ч.
Смотрите также архив погоды в соседних городах и на ближайших метеорологических станциях:
Партнеры нашего сайта:      
Пояснения к столбцам:
  • Ветер - указаны скорость ветра в м/с - средняя за 10 мин, порывы в срок и между сроками (в фигурных скобках) и направление, откуда дует ветер: С - северный,
  • СВ - северо-восточный, В - восточный, ЮВ - юго-восточный, Ю - южный, ЮЗ - юго-западный, З - западный, СЗ - северо-западный.
  • Видимость - горизонтальная дальность видимости в метрах или километрах. При видимости от 1 до 10 км при отсутствии осадков обычно наблюдается дымка, при ухудшении видимости до 1 км и менее - туман. В сухую погоду видимость может ухудшаться дымом, пылью или мглою.
  • Явления - указаны атмосферные явления, наблюдавшиеся в срок или в последний час перед сроком; фигурными скобками обозначены явления, наблюдавшиеся между сроками (за 1-3 часа до срока); квадратными скобками обозначены град или гололедные отложения с указанием их диаметра в мм.
  • Облачность - указаны через наклонную черту общая и нижняя облачность в баллах и высота нижней границы облаков в метрах; квадратными скобками обозначены формы облаков: Ci - перистые, Cs - перисто-слоистые, Cc - перисто-кучевые, Ac - высококучевые, As - высокослоистые, Sc - слоисто-кучевые, Ns - слоисто-дождевые, Cu - кучевые, Cb - кучево-дождевые. Подробнее классификацию облаков см. в Атласе облаков (PDF).
  • T - Температура воздуха - температура, измеренная на высоте 2 м над землей.
  • Td - Температура точки росы - температура, при понижении до которой содержащийся в воздухе водяной пар достигнет насыщения.
  • f - Относительная влажность воздуха - влажноcть воздуха, измеренная на высоте 2 м над землей.
  • Te - Эффективная температура - температура, которую ощущает одетый по сезону человек в тени. Характеристика душности погоды. При расчете учитывается влияние влажности воздуха и скорости ветра на теплоощущения человека.
  • Tes - Эффективная температура на солнце - температура, которую ощущает человек, с поправкой на солнечный нагрев. Характеристика знойности погоды. Зависит от высоты солнца над горизонтом, облачности и скорости ветра. Ночью, в пасмурную погоду, а также при ветре 12 м/с и более поправка равна нулю.
  • P - Атмосферное давление - приведенное к уровню моря атмосферное давление.
  • Po - Атмосферное давление - измеренное на уровне метеостанции атмосферное давление.
  • Tmin - Минимальная температура - минимум температуры воздуха на высоте 2 м над землей.
  • Tmax - Максимальная температура - максимум температуры воздуха на высоте 2 м над землей.
  • R - Количество осадков - Количество выпавших осадков за период времени, мм. При наведении курсора мыши на число - период времени, за который выпало указанное количество осадков.
  • R24 - Количество осадков - Количество выпавших осадков за 24 часа, мм.
  • S - Снежный покров - Высота снежного покрова, см. При наведении курсора мыши на число - состояние снежного покрова и степень покрытия местности в баллах.